Terminal Aerodrome Forecast
Issued by NWS

Home | Current Version | Previous Version | Text Only | Print | Product List | Glossary On
Versions: 1 2 3 4 5 6 7 8 9 10 11 12 13 14 15 16 17
274
FTUS42 KMLB 220542
TAFSFB
TAF
KSFB 220542Z 2206/2306 VRB03KT P6SM FEW005 BKN015
     FM220800 VRB02KT 2SM BR BKN005 OVC015
      TEMPO 2209/2212 1/2SM FG OVC003
     FM221300 34005KT P6SM FEW015 SCT035 BKN250
     FM221700 03008KT P6SM BKN050
     FM230300 04006KT P6SM SCT015 BKN030=

USA.gov is the U.S. government's official web portal to all federal, state and local government web resources and services.